This is the latest recevied weather packets stored in our database for station/object K5GHS-1. If no packets are shown the sender has not sent any weather packets the latest 10 day(s).
| Time | Temp. | Humidity | Pressure | Rain* | Wind** | Luminosity | Snow |
|---|---|---|---|---|---|---|---|
| 1777832852 | 27.78° C | 36% | 1017.5 hPa | 0 mm | - | 700 W/m² | - |
| 1777832551 | 28.33° C | 37% | 1017.7 hPa | 0 mm | - | 705 W/m² | - |
| 1777832248 | 27.78° C | 36% | 1017.8 hPa | 0 mm | - | 727 W/m² | - |
| 1777831945 | 27.22° C | 38% | 1017.9 hPa | 0 mm | - | 731 W/m² | - |
| 1777831641 | 27.78° C | 38% | 1018.2 hPa | 0 mm | - | 728 W/m² | - |
| 1777831340 | 27.78° C | 36% | 1018.2 hPa | 0 mm | - | 727 W/m² | - |
| 1777831036 | 27.78° C | 37% | 1018.4 hPa | 0 mm | - | 720 W/m² | - |
| 1777830734 | 27.22° C | 39% | 1018.3 hPa | 0 mm | - | 722 W/m² | - |
| 1777830429 | 27.78° C | 39% | 1018.3 hPa | 0 mm | - | 723 W/m² | - |
| 1777830127 | 27.22° C | 39% | 1018.3 hPa | 0 mm | - | 731 W/m² | - |
| 1777829822 | 27.22° C | 39% | 1018.7 hPa | 0 mm | - | 721 W/m² | - |
| 1777829519 | 27.22° C | 38% | 1018.7 hPa | 0 mm | - | 722 W/m² | - |
| 1777829216 | 27.78° C | 37% | 1018.8 hPa | 0 mm | - | 714 W/m² | - |
| 1777828913 | 27.22° C | 40% | 1018.7 hPa | 0 mm | - | 739 W/m² | - |
| 1777828609 | 26.67° C | 40% | 1018.7 hPa | 0 mm | - | 752 W/m² | - |
| 1777828307 | 26.67° C | 41% | 1018.7 hPa | 0 mm | - | 755 W/m² | - |
| 1777828003 | 26.67° C | 40% | 1018.9 hPa | 0 mm | - | 762 W/m² | - |
| 1777827700 | 26.67° C | 42% | 1019 hPa | 0 mm | - | 791 W/m² | - |
| 1777827397 | 26.11° C | 42% | 1018.8 hPa | 0 mm | - | 783 W/m² | - |
| 1777827093 | 26.67° C | 40% | 1019 hPa | 0 mm | - | 773 W/m² | - |
| 1777826790 | 26.11° C | 42% | 1019.3 hPa | 0 mm | - | 777 W/m² | - |
| 1777826487 | 26.11° C | 42% | 1019.2 hPa | 0 mm | - | 731 W/m² | - |
| 1777826184 | 25.56° C | 42% | 1019 hPa | 0 mm | - | 683 W/m² | - |
| 1777825882 | 26.11° C | 41% | 1019 hPa | 0 mm | - | 670 W/m² | - |
| 1777825579 | 25.56° C | 42% | 1019.3 hPa | 0 mm | - | 742 W/m² | - |
* Rain latest hour (hover to see other rain measurements)
** Current wind speed in m/s (hover to see current wind gust speed)